Location: Chandrammap?lem
(16.9200°N, 81.0051°E)
Time: 02:59:44
(UTC+00:00)

Cosmos 2084 Rocket - Pass Details

Date: 29 May 2024
Orbit: 513 x 632 km, 62.8° (Epoch: 17 June)

Event Time Altitude Azimuth Distance (km) Brightness Sun altitude
Exits shadow 22:17:54 67° 294° (WNW) 650 3.4 -22.8°
Maximum altitude 22:17:54 67° 295° (WNW) 650 3.4 -22.8°
Drops below altitude 10° 22:22:12 10° 19° (NNE) 1,903 6.7 -21.9°
Sets 22:24:25 0° 22° (NNE) 2,782 7.8 -21.5°
